Theta_e
284 279 277 275 280 280 280 280 282 281 280 279 278 277 276 275 276 278 279 283 282 279 276 279 280 279 279 276 277 278 278 277 276 275 275 275 276 276 276 276 276 276 277 279 279 280 280 280 280 280 280 280 280 280 280 280 279 280 280 279 279 280 280 280 281 283 283 283 284 286 287 288 291 290 291 292 293 294 297 300 302 303 302 302 302 303
282 279 279 280 282 281 281 280 280 279 277 277 276 274 274 275 275 279 280 280 281 278 278 277 276 277 275 276 276 277 276 274 275 275 275 275 276 276 276 276 276 276 278 278 278 279 279 279 279 280 280 280 278 279 279 279 279 279 279 279 279 279 279 280 280 281 281 283 284 284 286 286 288 288 287 288 289 290 292 293 295 298 300 301 301 300
278 279 280 281 281 281 280 279 278 278 278 276 274 273 272 275 277 279 278 279 280 279 278 278 277 274 274 275 277 276 275 276 276 276 276 275 275 275 276 276 276 276 276 277 277 278 278 279 279 279 279 279 279 279 278 278 278 278 278 279 279 279 278 279 280 280 280 281 282 284 285 286 286 288 288 288 288 288 288 290 291 292 294 298 299 299
277 279 281 281 280 280 279 278 277 276 277 276 275 273 272 275 274 273 279 280 280 278 277 278 276 273 275 276 275 276 276 275 276 276 276 276 275 275 275 276 276 276 276 276 276 277 277 278 278 278 278 278 278 278 278 278 278 278 278 278 279 278 278 278 279 280 280 281 281 283 285 285 285 284 286 287 286 286 286 287 288 288 290 291 295 298
278 282 282 279 279 280 278 278 278 276 274 274 275 274 274 276 276 275 277 279 280 280 279 277 274 272 273 272 273 275 276 275 275 275 275 275 276 276 276 276 276 275 276 276 276 277 277 277 277 277 278 277 277 278 277 278 277 278 277 277 278 278 278 278 279 278 279 279 279 280 281 281 281 282 282 282 282 284 284 285 286 286 287 288 289 291
279 282 282 280 278 278 278 277 277 277 275 274 274 276 276 276 276 277 277 276 275 274 276 276 268 268 270 272 272 273 274 273 275 274 274 274 274 275 274 274 275 276 276 276 276 276 276 277 277 277 277 277 277 277 277 277 277 277 277 277 277 278 278 278 277 278 278 278 277 277 277 276 277 277 278 279 279 281 281 282 285 285 286 287 287 289
281 282 280 279 277 278 277 276 276 278 273 272 275 277 276 276 276 276 276 275 267 268 275 278 269 264 271 271 272 273 272 272 274 274 273 274 274 274 274 274 274 275 275 276 276 276 276 276 276 277 277 276 276 277 277 277 277 277 277 276 276 277 277 277 277 277 278 276 276 276 276 276 276 275 276 279 281 280 281 282 282 283 284 286 286 287
282 280 281 278 277 277 276 275 278 277 273 272 278 276 278 277 276 276 276 274 272 276 277 276 274 267 267 270 272 274 272 272 273 273 274 274 275 274 274 274 274 274 275 275 276 276 276 276 276 276 276 276 276 276 277 277 277 276 276 276 276 276 277 276 277 276 277 276 275 275 276 277 276 276 276 277 278 279 280 280 280 282 282 284 285 285
280 279 279 278 277 276 275 276 278 277 275 275 278 278 277 277 276 276 274 272 273 271 269 273 274 267 266 270 275 274 271 272 272 273 274 275 275 276 276 276 276 276 276 276 276 276 277 277 277 277 276 276 276 276 276 276 276 276 275 276 275 275 275 276 276 276 275 277 276 275 274 274 276 276 276 277 278 277 278 277 279 279 281 282 283 284
280 281 280 278 277 275 277 278 278 278 274 277 279 279 278 277 276 276 271 272 270 269 266 272 274 268 266 270 271 274 271 270 271 273 274 275 275 275 276 276 277 277 277 278 277 278 278 278 278 278 277 277 277 277 277 276 276 276 275 275 275 274 275 275 274 275 274 274 275 274 274 274 274 275 275 276 276 276 276 276 277 278 278 280 281 282
278 282 284 279 278 278 278 277 278 278 278 279 277 276 276 275 274 273 272 266 265 261 267 272 273 272 264 268 268 269 270 272 274 274 275 275 275 276 276 276 277 277 277 278 278 278 278 279 279 279 278 278 278 278 277 277 277 278 277 275 274 274 274 274 274 274 274 274 274 274 274 274 273 274 274 274 274 275 275 275 275 276 277 278 278 280
279 279 280 279 282 280 279 276 278 278 277 276 273 273 272 271 271 269 265 268 261 259 268 273 273 273 264 267 270 272 274 274 274 272 273 273 274 275 275 276 277 277 277 277 278 277 278 278 279 279 279 279 278 278 278 278 278 278 278 277 276 275 274 274 275 274 273 274 273 273 273 273 273 273 273 273 272 274 274 275 275 276 276 276 277 277
277 277 278 278 284 278 276 274 274 277 276 275 273 272 266 260 262 261 265 261 262 263 270 273 273 268 267 269 270 272 273 274 275 274 273 274 274 275 276 276 277 277 277 277 277 277 277 277 277 278 278 278 278 278 278 278 278 278 278 277 276 276 276 275 275 274 273 273 273 273 273 272 273 273 273 273 273 273 273 274 274 275 274 275 275 275
269 275 277 277 277 279 276 272 272 271 275 274 272 269 264 261 258 258 260 262 264 269 272 271 272 266 269 270 273 271 273 275 275 275 275 275 275 275 275 275 275 276 276 277 277 276 276 277 276 277 277 277 278 278 278 278 278 278 277 277 276 276 276 276 276 276 274 273 274 274 273 273 273 272 272 272 272 273 273 274 274 274 274 274 274 274
263 263 271 274 271 277 276 274 274 273 272 273 275 271 262 262 258 255 259 257 260 263 267 271 264 259 261 265 272 274 274 275 276 276 276 276 276 276 276 275 275 275 275 276 276 276 276 276 276 276 277 276 277 277 278 278 277 277 277 276 276 275 276 276 276 277 276 275 274 273 273 273 273 273 272 272 274 272 272 273 273 274 274 273 274 274
271 268 273 276 276 276 275 277 277 274 271 273 274 274 263 261 269 260 261 261 259 262 262 260 260 265 266 272 274 272 275 275 276 275 276 275 276 276 275 275 275 275 275 275 275 275 276 276 276 276 276 276 276 277 277 277 277 277 277 276 276 275 275 275 276 276 276 276 275 274 273 273 273 273 273 273 273 272 272 273 273 273 273 274 273 274
269 267 275 277 275 275 274 277 276 276 262 271 271 263 268 273 271 261 265 269 266 261 260 260 264 268 271 272 271 273 274 274 275 275 275 275 275 275 274 275 275 275 275 275 275 275 275 275 275 275 275 275 276 276 276 277 277 277 276 276 276 275 275 275 275 275 275 275 275 275 275 274 273 272 272 272 272 273 273 273 273 273 273 273 273 274
262 269 274 272 272 276 276 276 277 276 276 270 261 269 274 275 272 263 257 259 257 256 260 265 262 263 262 261 269 271 271 272 272 273 274 274 274 274 274 274 274 274 274 275 275 275 275 275 275 275 275 275 275 275 275 276 276 276 276 275 275 275 275 275 275 274 274 274 274 275 275 275 275 274 273 272 272 272 273 273 273 273 273 273 273 274
271 263 269 273 273 275 276 274 274 276 275 272 269 274 266 256 260 268 263 256 256 257 259 262 260 262 261 262 263 266 267 267 269 272 272 272 272 272 272 273 273 273 273 273 273 274 274 274 274 274 274 275 275 275 275 275 275 275 274 274 274 274 275 275 275 274 275 274 274 275 275 275 275 275 274 273 272 272 272 272 273 273 273 273 273 273
270 261 268 273 273 274 273 274 265 269 273 275 275 271 274 269 260 260 261 261 260 258 257 259 261 258 262 260 262 263 265 268 269 268 267 270 270 272 272 272 272 272 272 272 272 273 273 273 274 274 273 274 274 274 274 274 274 274 274 274 274 274 273 273 273 273 273 274 274 274 274 274 274 274 274 274 274 273 272 272 272 272 272 272 273 273
268 269 259 270 274 271 267 270 268 268 266 268 268 266 267 263 270 266 260 257 258 255 256 257 256 258 260 265 266 266 266 268 268 269 269 270 271 272 272 272 272 272 273 273 273 273 272 273 273 272 273 273 273 274 274 274 273 274 274 273 274 273 273 273 273 273 273 273 273 273 273 273 273 273 273 273 273 273 273 273 273 272 272 272 272 272
262 266 262 268 268 267 269 273 272 271 271 269 267 264 267 261 262 258 258 259 256 256 256 256 256 263 263 272 266 270 271 269 270 269 269 270 270 271 271 271 271 272 272 272 273 272 272 272 271 272 272 273 272 273 273 273 273 273 273 273 273 273 273 273 273 273 273 273 273 272 273 273 273 273 272 272 272 272 272 272 272 272 271 271 271 271
272 268 267 262 267 269 271 273 273 273 273 272 270 267 270 261 257 258 256 258 260 259 259 260 257 261 266 266 266 268 268 269 270 269 269 270 270 270 271 271 271 271 271 272 272 272 272 271 271 271 271 271 272 272 272 272 272 272 272 272 272 272 273 273 273 274 273 273 273 272 272 272 272 272 272 272 272 272 272 272 272 272 271 270 269 271
279 260 261 267 269 271 274 274 273 273 273 270 271 272 266 263 262 260 260 261 260 255 255 256 255 259 260 265 266 266 266 265 267 268 269 270 271 271 271 271 271 271 271 271 272 272 272 270 270 271 271 271 272 272 271 271 271 272 271 272 272 272 272 273 273 273 273 273 273 273 273 273 274 274 274 273 272 272 272 272 271 271 270 269 270 270
261 264 267 258 259 264 266 268 269 270 271 267 263 268 266 264 264 258 260 254 257 256 260 255 254 259 261 264 264 267 268 268 270 270 269 270 271 271 271 271 271 271 271 271 271 271 270 270 270 270 271 271 272 272 271 271 271 271 271 272 272 272 272 272 273 273 273 273 273 273 273 273 274 273 273 273 272 271 271 271 270 269 268 269 269 270
262 264 258 254 255 254 255 256 259 261 265 268 269 266 266 262 262 262 259 255 256 256 259 252 257 265 267 263 267 269 269 269 270 270 270 271 270 270 270 270 270 270 270 271 271 270 269 270 270 270 271 271 271 272 271 271 271 271 271 271 272 272 272 272 272 272 272 273 272 272 272 272 272 272 271 270 270 270 270 270 269 269 269 270 270 271
263 268 265 260 255 258 261 264 269 270 267 263 265 264 264 262 261 259 255 254 255 257 256 260 262 263 265 266 267 268 269 268 269 269 269 269 270 270 270 270 270 270 270 270 270 269 269 269 270 270 270 271 271 272 272 271 271 271 271 271 271 271 271 272 272 271 271 271 271 271 271 271 270 270 270 270 270 270 269 269 270 270 270 270 270 270
258 262 267 267 266 266 268 267 269 270 266 267 265 265 264 262 259 259 257 260 260 256 258 263 261 258 263 266 266 267 268 269 269 269 269 269 269 269 270 270 272 270 270 270 269 268 268 269 269 270 270 270 271 271 271 271 271 271 270 270 271 271 271 271 270 270 270 270 269 270 270 270 270 271 271 271 271 270 270 270 269 269 270 270 270 270
261 260 261 261 261 266 268 268 269 268 268 268 267 265 264 265 261 258 258 263 260 258 259 264 264 261 264 266 267 268 269 268 268 268 269 269 269 270 269 269 268 269 269 269 268 268 268 268 269 269 270 270 270 270 271 271 271 271 270 270 270 270 270 270 269 269 269 269 269 269 269 269 269 270 270 271 271 270 270 270 270 269 269 269 269 270
263 257 259 261 265 266 266 267 268 266 266 265 264 265 266 264 263 263 263 263 262 261 264 264 263 263 265 266 268 268 269 269 269 269 269 269 269 269 268 268 268 268 268 267 268 268 268 269 269 269 269 269 270 270 271 270 270 270 269 269 270 269 269 269 269 268 268 268 268 268 268 268 268 268 268 268 268 268 268 268 268 268 268 268 269 269
267 263 268 260 259 262 264 264 264 265 263 264 266 266 265 264 263 263 262 263 262 262 263 263 262 262 267 269 268 269 269 269 269 268 268 268 268 268 267 267 267 267 267 267 267 268 268 268 268 268 268 269 270 270 269 269 269 269 269 269 269 268 269 269 268 268 267 267 267 267 267 267 267 267 267 267 267 267 267 267 267 267 268 268 268 268
264 262 259 256 258 261 263 263 264 265 265 264 263 263 263 262 259 262 258 262 260 259 260 261 259 260 266 269 268 268 268 267 266 267 267 268 268 268 267 267 267 266 266 267 268 268 268 268 268 268 268 268 268 268 268 268 268 268 268 268 268 269 269 268 267 267 267 266 266 266 266 266 266 266 266 266 266 267 267 267 267 267 267 268 268 268
260 258 259 257 259 257 263 263 264 264 261 254 252 260 264 263 264 263 264 265 265 264 260 258 260 265 266 267 265 266 267 267 267 267 267 268 268 268 267 267 267 267 267 268 268 268 267 267 268 268 268 267 267 267 267 268 267 267 268 268 268 268 268 267 266 266 266 266 265 266 266 266 265 265 265 266 267 267 267 266 266 266 267 267 268 269
259 259 259 258 258 258 263 262 262 257 255 259 264 264 265 264 263 262 262 263 264 263 262 264 265 266 267 266 265 265 265 266 267 268 270 268 267 267 268 267 267 268 268 268 268 268 268 268 268 267 267 266 267 267 268 268 267 268 268 268 267 267 266 266 265 265 265 265 265 265 265 265 264 265 266 266 266 265 265 265 266 266 267 267 267 267
260 258 258 254 257 258 258 261 260 253 255 263 266 267 266 265 265 264 264 263 264 264 264 264 265 265 266 266 266 266 267 268 269 269 269 269 269 268 267 267 268 268 268 267 267 267 268 267 267 266 266 266 266 267 267 267 267 267 266 266 266 266 265 265 264 265 265 264 264 264 264 265 266 265 265 265 264 265 266 266 267 266 265 265 265 265
259 258 257 260 255 255 253 252 251 257 261 266 264 265 267 266 264 263 264 265 265 265 265 263 265 265 265 265 267 268 268 268 269 269 269 269 270 268 268 268 268 268 267 267 267 267 267 266 265 265 265 267 267 267 267 266 266 265 265 265 265 264 264 264 264 264 263 263 263 264 265 265 265 265 265 265 264 264 264 264 264 264 264 264 264 264
265 257 257 261 255 254 254 252 258 263 263 260 261 263 265 262 260 259 255 263 262 264 265 265 264 264 265 266 267 267 268 267 265 266 269 269 269 270 270 269 269 268 267 267 268 268 268 266 266 266 266 266 267 266 266 265 265 265 264 264 264 264 264 263 262 262 262 263 263 264 265 265 265 264 263 263 262 262 262 262 263 263 264 264 264 264
268 263 261 260 259 254 256 255 254 254 252 254 260 262 264 265 265 265 259 261 266 263 265 264 263 264 265 266 266 266 267 264 261 263 266 268 270 269 270 269 268 268 267 268 268 268 267 266 266 266 266 266 266 265 265 265 264 264 263 263 264 264 263 262 261 262 262 263 263 264 265 265 263 262 261 261 261 261 262 262 263 264 265 264 264 264
265 265 263 262 259 255 256 254 248 248 257 258 261 264 266 267 266 265 258 259 264 263 265 265 265 266 266 265 266 265 263 260 261 264 267 268 269 269 268 268 267 267 267 268 268 267 266 266 266 266 266 265 264 264 264 264 263 263 263 264 263 262 261 261 261 261 262 263 265 265 264 262 261 261 261 260 260 261 261 262 263 264 265 264 264 264
264 257 256 260 256 255 253 252 253 252 258 259 259 262 267 266 266 261 254 254 259 265 266 265 265 265 266 266 266 264 262 259 261 265 269 269 269 269 267 267 266 267 267 267 267 267 266 266 265 264 264 264 264 264 264 263 263 263 263 262 261 260 260 260 261 262 263 264 264 263 262 261 261 261 260 260 260 261 261 262 263 263 263 263 264 263
258 259 258 261 256 258 260 254 251 258 262 260 261 264 266 267 264 252 253 263 264 265 266 266 266 266 266 266 265 262 265 267 267 269 269 269 268 268 268 267 267 267 267 267 267 267 265 265 264 264 264 264 264 263 263 263 262 263 263 261 260 259 260 261 262 263 264 264 262 261 261 261 261 260 261 261 260 261 261 261 262 262 262 262 263 263
255 255 256 254 253 255 254 254 257 259 262 263 264 265 266 263 253 256 264 265 265 267 268 267 266 267 267 266 266 266 267 268 269 269 269 268 267 267 267 267 267 267 268 268 267 266 265 264 264 264 263 263 263 263 263 263 262 263 262 260 259 260 261 262 262 263 264 262 260 260 260 260 261 261 261 261 260 260 260 261 262 262 262 262 262 262
259 258 254 253 254 255 254 250 253 254 259 265 266 264 264 259 262 265 265 266 267 267 267 267 267 267 266 266 267 267 267 267 267 267 267 267 267 266 266 266 266 266 266 266 265 265 265 263 263 263 262 263 262 263 263 262 261 261 261 259 260 261 261 262 262 263 263 261 260 260 260 260 260 260 260 260 260 259 259 261 262 262 262 261 262 262
260 261 254 254 255 255 251 252 256 264 262 266 267 262 263 267 271 270 267 268 268 267 267 267 268 267 267 266 266 266 266 266 266 267 267 266 266 266 266 266 266 266 265 265 264 264 264 263 263 263 262 262 262 262 262 261 261 261 260 259 261 261 261 262 262 263 261 261 260 259 259 259 259 259 259 259 260 260 260 261 261 261 261 261 261 261
265 264 261 264 257 261 260 262 267 263 266 269 269 271 270 271 271 271 269 269 267 268 268 268 267 267 267 266 266 266 265 266 266 267 265 265 265 265 264 265 265 265 264 263 263 264 264 263 262 262 261 261 261 261 261 261 260 260 259 260 261 260 260 261 262 261 260 259 259 259 258 258 258 258 259 259 260 260 260 259 260 259 260 261 260 260
265 267 265 265 263 266 269 271 272 272 272 271 271 272 271 272 272 270 269 267 269 269 268 267 267 267 267 266 265 265 265 266 265 265 265 265 264 264 265 264 264 264 263 263 263 263 263 263 262 260 260 260 260 260 260 260 260 259 259 260 261 261 261 262 261 259 259 258 258 258 258 257 257 258 259 260 260 260 260 259 259 259 260 260 260 260
266 267 267 263 264 263 263 268 269 271 272 272 273 274 273 273 272 271 269 269 269 268 267 267 267 267 266 266 265 265 265 266 265 265 264 264 264 263 263 263 263 263 263 262 262 263 262 261 260 259 259 258 259 260 260 259 260 260 260 260 260 261 262 259 258 258 258 257 257 257 257 256 257 258 258 259 259 260 260 260 260 259 259 259 259 259
265 269 266 268 264 265 267 271 270 271 271 272 272 271 271 271 271 270 270 270 269 268 267 267 267 267 267 266 266 265 265 266 265 264 263 263 263 263 263 263 262 262 262 262 262 262 261 261 259 259 258 258 259 259 259 259 259 259 259 260 261 261 261 258 257 257 256 256 256 256 256 256 258 258 257 258 259 259 259 259 259 258 258 259 260 259
266 269 264 265 264 267 270 271 272 272 272 272 273 274 273 273 271 269 269 268 267 267 267 267 268 268 267 267 267 266 265 265 264 264 263 262 262 263 263 262 262 261 261 261 261 261 260 260 259 258 258 258 259 259 258 259 260 259 259 260 261 261 259 258 257 257 255 256 256 256 257 256 256 257 257 257 258 259 259 259 259 259 260 261 261 261
267 266 266 265 264 265 266 270 271 266 268 270 271 271 271 271 270 269 268 267 267 267 267 267 267 268 268 268 267 265 264 264 264 263 262 262 262 263 263 262 261 260 260 261 261 260 260 259 258 258 257 258 258 258 258 259 259 258 259 260 260 259 258 257 256 254 255 255 255 255 256 256 256 256 257 257 257 257 259 261 261 261 260 260 263 263
269 270 268 266 264 266 272 274 272 272 272 273 273 273 271 270 269 269 269 269 268 268 268 266 265 265 266 266 267 265 264 264 263 263 262 262 262 263 262 261 260 260 260 260 259 259 258 258 258 257 257 257 258 258 258 258 258 259 259 259 258 258 257 255 255 254 254 254 254 255 256 256 256 255 255 256 257 257 256 256 258 261 262 262 262 262
Wind_Speed
2 8 7 5 5 6 5 3 0 1 1 2 2 0 5 6 7 5 4 9 4 7 3 2 8 7 5 9 8 8 12 15 14 14 12 11 11 11 11 11 11 12 10 8 9 10 11 12 11 11 10 12 12 14 15 14 16 15 14 15 18 16 16 15 14 13 14 16 16 14 13 10 10 11 11 13 13 13 12 13 9 6 2 2 4 5
9 8 5 2 3 3 1 3 6 5 4 5 5 5 8 4 12 12 8 4 5 5 12 7 7 6 11 11 10 10 16 14 12 12 13 12 11 11 11 12 11 7 6 9 11 12 10 11 11 10 10 12 15 15 14 15 14 13 14 14 14 13 15 16 15 12 11 11 10 9 8 9 8 12 12 11 14 13 13 15 15 13 10 8 5 4
8 8 2 4 3 2 4 6 4 3 3 4 6 5 6 10 7 12 4 5 3 8 13 12 12 11 13 13 14 15 14 11 11 12 10 12 13 11 11 11 10 10 10 9 9 9 9 10 10 9 9 9 10 10 12 12 13 14 13 12 12 12 13 14 15 13 13 11 10 10 8 9 7 6 8 8 10 11 13 14 15 15 16 12 6 6
8 4 3 2 2 6 5 5 5 3 4 10 12 7 9 8 8 16 20 9 8 1 9 14 7 10 10 13 14 12 10 10 11 13 13 12 12 11 11 9 10 9 10 11 9 9 8 7 7 8 9 9 8 10 11 12 12 11 12 12 12 11 11 12 13 14 13 13 11 9 8 7 6 7 8 8 11 15 18 16 14 15 16 16 13 8
5 2 1 4 7 6 5 7 14 10 9 4 3 3 9 14 14 6 12 15 18 11 9 6 3 7 8 9 9 8 9 12 11 12 12 11 9 7 6 9 8 8 7 8 8 8 9 9 9 7 7 7 8 9 9 10 10 8 10 11 10 10 10 10 11 11 12 12 12 11 8 7 10 13 15 16 15 14 13 13 15 14 15 15 14 14
4 2 2 4 7 7 14 13 9 9 11 8 2 2 7 9 12 12 10 9 10 13 2 7 9 3 2 9 9 7 8 12 9 13 11 9 9 8 10 8 7 6 4 5 6 6 6 6 7 7 7 7 7 7 6 5 6 7 8 9 9 7 8 9 10 10 9 11 12 13 16 16 14 13 15 14 13 14 13 12 11 12 12 13 14 14
1 2 5 2 7 12 11 7 6 8 8 6 10 7 6 7 7 10 13 7 7 7 7 10 1 5 7 7 7 7 10 10 8 10 8 8 8 7 7 6 6 6 7 6 5 6 6 7 6 7 7 7 6 5 5 4 5 6 6 6 7 7 6 7 8 9 8 9 11 13 13 12 11 11 9 8 8 8 8 8 9 10 11 10 12 14
4 8 9 9 10 11 11 12 10 7 6 5 7 7 11 11 13 13 10 4 7 4 12 1 7 5 2 4 5 6 9 8 8 9 7 6 8 6 5 4 5 6 6 5 7 7 6 6 6 7 7 6 6 5 5 5 4 5 6 6 6 5 5 5 6 8 8 8 8 9 10 9 10 10 10 12 10 9 8 9 10 8 8 11 11 12
3 5 5 7 8 10 9 6 11 4 4 6 11 12 12 9 10 11 7 7 4 2 8 9 2 1 1 2 4 3 6 7 8 7 7 8 7 5 6 6 7 7 8 8 9 10 10 9 8 6 7 6 6 5 5 4 4 4 4 4 4 6 4 5 5 6 7 7 7 6 6 7 7 8 8 8 8 9 9 9 10 10 9 9 10 11
2 1 2 6 8 8 5 7 6 6 7 5 10 8 6 6 7 8 5 6 6 2 8 7 11 7 4 4 6 4 5 4 4 5 5 4 6 8 8 8 7 7 7 7 8 8 8 8 8 6 6 6 6 5 5 4 4 4 3 4 4 5 5 4 4 5 5 5 5 7 7 7 5 4 4 6 8 9 9 10 11 11 11 10 10 10
3 5 2 6 6 6 6 5 4 8 5 5 6 8 10 8 7 5 2 1 2 2 4 8 13 11 8 5 4 6 6 3 3 3 3 5 6 7 7 8 8 7 8 7 7 7 6 6 6 5 7 7 7 5 5 5 4 4 3 2 4 3 4 4 4 4 5 4 4 5 6 7 7 7 6 6 7 8 11 12 13 12 11 10 10 10
4 6 4 1 1 8 3 6 4 4 4 5 4 6 8 7 3 2 3 2 1 5 3 14 13 11 11 1 4 3 1 3 1 1 4 6 6 6 5 6 5 5 6 6 5 6 6 6 6 5 6 7 8 6 6 5 4 4 4 3 4 4 2 2 3 3 3 4 4 4 4 5 4 6 7 8 8 9 9 10 11 12 11 11 9 9
8 9 3 6 2 10 5 4 4 0 4 8 5 5 8 4 5 9 5 11 9 9 8 14 13 6 1 3 3 3 1 2 6 4 4 5 5 5 5 5 4 4 4 5 5 6 6 6 7 8 8 8 7 8 7 7 5 5 4 3 2 4 4 4 1 1 1 3 3 3 3 3 3 3 4 4 5 5 6 6 6 7 8 9 9 10
5 1 7 7 6 8 6 8 10 4 10 12 11 9 11 10 7 7 4 3 7 11 10 16 7 1 1 3 5 4 1 3 2 3 2 3 4 6 6 5 5 5 5 6 6 6 6 6 6 6 6 7 8 9 9 7 6 5 4 4 2 4 3 3 5 4 3 1 0 0 1 2 2 3 2 3 2 3 2 3 2 3 5 6 7 9
5 3 6 4 4 5 4 3 1 2 2 6 2 7 3 1 1 4 3 5 9 12 15 8 4 2 1 2 5 3 1 0 1 2 3 5 6 8 7 6 7 5 5 6 5 6 6 7 7 6 7 7 8 10 10 8 8 6 4 4 4 4 4 3 4 4 4 5 3 2 1 1 1 1 2 2 2 3 3 3 2 2 1 3 5 7
3 1 2 2 4 5 5 4 2 5 2 2 2 3 4 3 1 3 3 2 5 12 9 3 1 1 1 1 3 3 2 3 3 4 5 7 7 7 6 6 6 6 6 6 6 7 8 7 6 7 7 8 9 11 10 9 10 9 6 4 4 4 5 4 4 4 5 5 4 3 3 3 2 2 2 3 3 3 3 3 3 3 2 2 2 4
2 1 0 6 5 6 4 1 4 5 4 9 6 5 5 6 5 0 5 2 6 5 9 4 2 1 4 4 4 3 5 6 4 5 5 6 8 7 7 6 6 6 5 5 6 7 7 7 6 7 7 9 10 11 11 11 12 12 7 5 6 6 5 5 5 5 5 6 5 6 4 3 4 3 3 3 3 3 4 4 4 3 3 2 2 3
2 9 1 3 8 4 3 5 7 5 1 2 5 6 8 2 6 5 4 4 0 3 8 4 8 7 3 8 2 4 5 3 4 5 7 8 8 8 8 7 7 7 6 7 7 7 7 6 7 8 8 9 11 11 10 11 10 9 6 5 6 7 7 7 6 6 6 6 6 7 6 6 5 5 4 4 4 4 4 4 4 4 4 3 3 2
2 3 4 0 3 4 3 5 4 2 4 9 3 4 5 4 6 4 0 4 7 8 8 8 2 6 5 6 1 3 4 5 6 5 5 7 7 8 8 8 8 6 6 6 6 6 7 6 8 9 10 10 10 9 8 8 8 7 6 6 5 8 8 8 6 6 6 6 6 6 7 7 7 5 5 5 4 3 4 5 4 4 5 4 3 3
2 2 6 1 8 5 3 4 7 8 1 8 2 3 2 4 2 2 1 4 3 8 6 13 9 8 4 4 3 4 3 4 6 5 5 7 9 9 6 6 7 7 6 6 6 7 7 8 9 9 8 9 9 8 9 8 7 8 8 7 8 7 7 7 8 7 7 7 6 7 6 6 6 6 6 6 5 5 6 6 5 5 4 6 4 4
1 1 2 5 4 4 5 2 2 5 10 10 10 5 4 0 4 4 0 2 2 3 4 8 14 4 4 3 3 4 5 6 5 7 6 6 9 9 7 7 7 6 6 6 7 7 8 10 9 6 5 7 6 7 7 8 8 8 8 8 9 9 10 9 10 8 8 7 7 7 7 8 6 7 6 6 6 6 7 7 6 6 6 3 4 5
2 3 2 6 8 3 3 2 3 4 6 4 4 4 3 5 8 10 11 1 3 1 6 6 14 12 2 3 4 5 6 5 6 6 8 7 9 7 6 6 5 5 5 6 7 7 8 9 6 5 6 6 6 8 8 8 6 6 7 7 7 8 8 9 10 9 9 7 7 8 8 8 7 6 5 5 6 7 7 7 7 7 5 5 6 3
2 2 1 6 3 8 10 3 7 5 6 3 3 3 2 2 3 1 6 6 3 3 2 7 8 11 4 5 4 5 4 6 6 5 8 8 6 6 5 5 4 4 5 7 8 8 9 6 4 5 6 6 7 7 7 5 4 5 5 5 5 6 8 8 9 9 9 8 8 8 7 6 7 7 7 7 7 7 8 8 8 7 7 7 5 4
5 2 6 6 3 6 11 2 4 2 7 4 3 2 1 4 1 4 7 5 6 3 2 4 5 8 2 3 5 4 6 5 6 6 8 7 7 8 6 5 6 7 7 7 8 9 10 4 4 5 6 8 8 8 5 4 4 4 4 4 4 6 7 7 7 8 9 10 10 10 9 10 10 10 10 9 8 8 7 7 7 6 6 5 5 6
2 3 2 4 8 6 2 1 3 1 6 3 2 3 2 1 1 3 0 1 2 6 8 3 12 12 1 3 3 5 5 6 7 8 4 8 9 8 7 8 8 8 9 9 10 11 6 4 5 7 7 8 10 10 5 5 4 4 4 4 6 7 7 7 7 8 8 9 11 11 11 12 12 11 12 12 8 7 7 7 7 5 5 6 6 6
4 1 3 3 3 5 9 10 11 12 10 7 1 2 3 6 5 4 5 3 5 3 5 3 11 17 10 3 5 6 8 10 9 6 4 5 8 9 10 10 9 9 10 11 12 9 4 5 6 7 8 9 10 10 8 6 4 4 5 6 6 8 7 7 7 7 8 9 10 11 11 11 11 10 9 8 8 9 10 9 8 7 6 6 9 10
1 0 3 6 7 6 9 10 7 5 7 5 9 6 7 2 2 3 3 3 7 7 7 11 14 21 21 16 13 13 11 14 15 9 8 8 8 9 10 10 10 10 11 13 13 5 5 7 9 9 9 9 10 10 9 5 5 7 8 8 7 7 6 7 8 8 9 9 9 9 9 8 8 9 10 9 10 9 9 9 10 10 11 9 9 9
3 1 4 6 8 9 11 12 12 8 11 13 11 10 5 5 7 6 6 12 3 3 15 8 7 8 19 16 12 15 16 16 12 8 9 9 9 10 10 11 12 12 13 13 7 5 8 9 10 10 11 11 12 13 10 5 7 9 9 10 9 8 8 8 8 8 8 9 9 9 9 8 9 10 10 10 11 10 9 9 9 9 10 10 12 12
4 3 6 7 9 10 12 13 12 10 9 10 10 9 10 7 5 9 10 13 4 7 16 21 12 12 20 17 14 14 16 13 9 10 9 11 11 12 12 12 12 14 15 13 5 6 8 10 10 11 12 13 15 15 10 7 10 10 10 10 11 11 9 8 8 9 9 9 8 8 8 8 9 10 11 12 11 11 12 12 12 12 12 12 13 13
3 1 5 6 9 6 10 11 10 9 5 6 9 13 11 8 12 12 13 8 10 12 15 16 17 20 18 15 13 13 7 7 9 8 10 12 14 13 12 12 12 14 13 6 6 8 8 10 11 12 13 14 13 10 10 10 11 11 11 12 11 9 8 8 9 10 9 8 7 7 8 10 10 11 10 10 11 12 13 13 13 11 10 11 12 13
3 2 3 1 3 7 7 6 6 7 5 11 13 11 10 8 9 10 5 7 6 11 13 13 14 21 16 7 9 4 5 7 8 12 13 13 13 13 12 12 14 14 7 5 7 9 10 10 11 13 13 11 10 11 12 11 12 12 12 10 9 9 9 8 9 8 8 9 9 9 9 10 10 8 9 11 13 13 13 12 10 9 10 10 10 11
3 2 2 2 4 8 1 4 6 7 10 12 14 13 10 6 6 6 6 6 4 11 7 9 12 15 14 8 10 6 7 9 12 13 14 13 13 11 12 13 15 9 6 8 9 10 12 12 14 13 11 9 10 11 12 13 12 11 10 9 9 9 8 8 9 10 11 10 10 10 10 8 8 10 12 12 13 12 9 9 10 11 10 10 9 7
2 1 1 1 3 7 3 2 9 8 6 4 4 8 7 6 7 4 5 7 11 6 8 10 16 12 11 8 9 12 10 12 13 12 13 14 12 12 13 13 9 7 9 10 12 13 14 14 13 11 9 9 10 12 13 11 10 10 10 10 10 10 10 10 11 11 11 10 9 9 8 9 11 12 12 10 9 9 11 12 11 11 10 10 9 8
2 3 0 2 1 8 9 10 4 4 5 4 4 6 5 7 6 8 9 10 9 6 10 10 15 15 14 12 12 12 11 12 13 16 13 11 12 13 14 8 6 8 11 12 13 14 14 14 11 8 8 10 12 12 9 7 9 9 9 11 11 12 12 12 12 10 10 8 8 9 10 11 11 11 9 9 10 10 10 11 12 10 8 8 8 9
4 2 1 2 1 7 6 10 9 5 4 2 1 5 5 6 5 10 12 9 11 12 14 15 16 17 16 11 9 10 12 13 13 15 14 11 11 11 8 5 8 11 14 14 15 14 14 12 9 9 10 11 12 10 7 8 7 9 10 11 13 12 12 12 11 8 7 9 10 10 10 11 10 9 10 9 9 9 10 10 10 10 10 9 9 9
4 3 2 1 2 1 2 2 2 10 5 8 5 3 2 1 4 4 17 11 15 13 12 13 15 12 8 9 11 12 13 15 13 10 11 11 9 5 4 9 11 11 12 12 14 16 13 9 9 10 12 12 11 9 8 9 9 11 12 12 12 12 10 8 7 9 10 10 10 10 10 9 9 9 8 9 10 11 12 11 11 12 11 10 9 9
10 4 3 3 2 2 3 2 10 8 15 6 2 2 5 5 1 1 5 20 3 5 8 13 12 7 8 9 11 13 13 12 12 11 5 8 5 3 6 9 10 11 11 12 13 14 9 7 8 11 12 12 11 9 8 9 10 11 12 13 12 10 7 8 10 10 11 10 10 10 9 8 8 8 10 10 10 11 11 11 11 11 9 11 10 10
7 3 4 3 3 4 2 8 8 8 5 7 7 2 1 6 6 3 2 18 12 8 9 8 6 8 11 13 12 12 13 14 15 10 2 3 3 8 9 9 8 9 10 12 13 11 7 7 8 10 11 14 11 8 8 9 10 11 12 13 9 7 9 10 11 11 10 9 10 9 6 7 8 8 9 9 9 11 11 11 10 10 9 10 10 10
4 3 4 7 4 2 1 3 3 3 11 5 5 6 7 5 8 4 3 16 6 6 7 8 7 10 11 12 14 7 9 14 17 12 5 5 8 9 11 10 8 8 10 12 12 10 8 8 8 10 12 12 10 9 9 11 12 12 13 9 7 8 10 11 11 10 10 11 10 5 7 7 7 8 8 9 10 10 11 11 10 10 8 9 8 9
1 1 1 1 2 4 3 2 7 6 10 5 6 4 6 4 8 5 6 10 2 4 8 4 6 11 12 11 10 8 6 13 17 15 11 12 11 10 9 12 11 11 12 12 10 6 6 7 10 12 12 10 9 8 10 11 11 13 12 7 7 9 11 11 10 11 11 10 6 6 7 7 8 9 9 10 10 10 10 10 9 9 8 8 8 8
3 2 3 11 5 5 7 7 4 9 7 5 6 7 5 5 6 1 9 12 5 8 6 5 10 9 9 10 7 11 9 11 14 15 15 14 14 13 10 8 9 9 12 13 11 6 6 7 7 10 12 9 8 9 9 10 10 12 9 7 8 11 11 11 10 11 12 7 6 7 7 7 7 10 10 9 9 10 10 9 10 10 10 10 9 9
1 1 2 3 3 7 6 7 10 8 10 8 1 9 8 4 2 11 8 4 2 6 6 5 9 10 8 9 8 10 12 12 13 13 14 14 13 13 10 9 10 11 11 11 8 6 8 9 10 11 9 6 8 10 9 9 11 12 9 7 10 11 11 10 10 11 9 6 7 7 8 8 9 10 9 9 9 10 10 10 10 10 10 8 9 11
7 5 5 4 3 2 1 1 6 6 2 6 9 3 2 4 9 7 3 3 4 7 7 7 6 9 6 12 10 12 13 13 13 13 13 13 12 12 11 12 14 15 15 12 8 6 8 10 12 12 9 7 7 9 9 9 12 11 7 8 10 10 10 10 11 11 7 6 8 8 9 9 10 11 10 10 9 10 11 10 9 9 9 10 10 10
5 1 3 4 7 3 5 5 7 10 4 8 9 5 7 14 11 7 3 11 4 5 6 7 7 6 6 8 12 12 13 12 13 12 13 11 10 11 11 11 13 13 13 7 5 8 9 11 11 10 8 8 8 8 8 8 11 11 10 10 9 9 10 11 12 8 6 7 8 8 9 10 10 10 10 10 10 10 11 10 8 9 8 9 9 8
10 7 8 5 4 7 9 11 11 3 6 10 10 11 8 11 8 8 8 10 9 8 4 7 9 6 5 8 11 10 12 11 12 11 10 11 11 11 13 14 14 14 10 7 8 10 10 11 12 9 8 8 9 10 9 8 10 12 12 9 8 10 10 11 9 5 8 8 8 9 9 10 10 10 10 10 9 9 9 9 9 9 8 8 8 8
2 4 0 0 8 6 13 16 14 12 11 11 12 12 13 12 8 7 9 9 8 8 6 7 7 7 7 5 8 9 9 12 13 10 10 10 12 13 14 14 13 7 6 8 11 11 11 10 9 7 9 9 9 11 9 8 9 13 12 8 9 10 11 8 6 7 8 8 8 10 10 10 11 10 9 10 8 8 8 8 8 8 8 8 8 8
3 3 3 5 2 3 10 1 8 16 14 11 12 10 9 10 11 7 7 9 9 6 6 5 6 8 8 6 7 9 12 9 10 10 9 11 13 14 14 14 9 5 8 11 12 12 11 9 9 8 9 11 10 10 9 9 10 11 8 8 10 11 9 4 5 6 7 9 9 9 9 10 9 9 9 8 8 8 7 7 7 8 9 8 8 8
4 4 3 11 4 6 16 12 8 10 10 9 9 10 11 11 11 9 10 8 7 5 5 6 6 7 4 7 7 9 10 7 8 10 10 10 11 12 13 10 8 9 10 10 11 11 10 10 10 9 9 11 11 10 9 10 11 9 7 9 11 10 5 4 5 6 7 9 8 8 8 8 13 12 8 8 8 8 8 7 7 8 8 8 8 8
4 6 6 4 6 12 13 18 22 20 18 17 17 13 11 10 8 7 8 8 6 6 7 6 6 8 6 9 8 7 8 7 5 7 9 10 11 11 11 9 8 10 11 12 11 10 10 10 10 10 10 12 11 10 9 11 10 7 9 11 9 7 7 6 6 6 6 7 8 8 8 8 7 8 8 8 8 8 7 8 8 8 9 8 6 7
7 8 3 2 7 11 12 14 4 4 13 7 7 11 11 9 7 8 5 6 7 8 7 7 7 7 8 8 7 5 6 7 5 5 8 9 10 10 10 10 10 11 11 11 10 9 10 10 10 10 11 11 10 9 10 10 8 7 9 8 7 9 10 6 5 5 6 7 7 8 8 7 7 7 8 9 9 9 8 9 13 12 10 10 13 16
11 12 8 9 7 12 14 11 6 9 12 14 11 7 7 6 5 7 9 10 9 8 7 7 8 6 6 7 6 6 6 6 7 6 8 8 9 9 8 8 11 12 12 11 11 11 11 11 9 8 10 11 10 10 9 9 8 9 8 6 9 10 8 4 4 5 6 7 7 8 8 7 7 7 8 8 8 8 10 11 10 12 16 15 15 15
Wind_Direction
97 69 51 28 335 334 340 15 283 271 198 265 235 258 298 290 283 238 257 268 4 328 248 302 297 281 8 67 57 52 60 60 58 55 53 48 46 41 42 42 37 37 34 13 20 20 18 19 17 16 18 19 20 22 18 16 17 15 15 12 16 9 6 7 5 11 8 4 358 3 7 360 359 6 3 15 6 6 2 1 347 336 324 198 205 208
66 69 26 299 313 323 355 43 40 21 34 13 345 5 334 336 319 313 298 327 354 43 297 312 293 351 58 42 36 45 56 49 53 53 49 46 43 41 37 35 36 28 22 24 22 16 19 18 16 16 20 17 19 16 17 19 14 15 14 17 15 12 10 12 10 5 11 11 6 349 344 344 347 11 12 8 11 3 359 8 6 359 355 345 321 315
49 61 301 319 305 117 75 60 59 68 2 352 30 318 346 332 294 279 242 315 12 2 297 319 320 48 50 53 51 52 61 59 50 55 49 45 42 38 31 31 26 23 21 22 22 14 16 14 13 18 19 20 20 15 19 14 15 17 15 15 15 15 14 13 9 9 8 2 3 357 349 352 336 19 16 10 10 9 7 10 10 5 359 349 347 345
47 353 311 346 356 75 29 49 29 31 51 16 348 24 346 312 4 330 320 332 318 186 297 294 324 81 62 60 57 50 56 61 58 55 50 46 44 36 32 28 25 22 17 16 12 8 8 10 9 15 18 14 11 16 16 15 17 16 16 13 12 14 15 14 12 12 6 3 359 358 355 357 16 0 0 10 17 13 9 8 6 10 5 356 351 349
110 285 305 61 42 64 42 15 27 12 353 337 305 341 338 334 324 296 296 324 319 304 199 272 16 102 29 61 59 50 51 58 48 53 49 43 46 41 33 33 29 21 14 6 2 4 4 6 7 6 4 4 15 14 14 14 13 14 13 11 10 12 14 13 13 13 8 4 6 6 359 13 13 16 19 8 8 11 3 358 8 4 3 359 357 2
50 319 285 34 41 37 34 17 16 13 345 349 250 4 319 305 307 307 302 339 331 321 76 51 344 65 344 68 62 50 53 55 44 56 45 37 38 31 34 29 17 13 10 7 353 344 343 352 352 357 0 8 8 11 2 3 3 10 10 10 10 12 14 14 14 12 14 18 14 9 16 15 10 11 10 13 356 355 2 355 347 356 6 3 360 4
84 332 60 54 57 30 32 26 356 24 350 353 325 341 336 313 290 291 306 4 318 320 299 59 95 283 97 54 61 65 67 60 54 53 44 41 30 30 30 18 16 10 1 357 356 345 352 351 354 351 357 353 0 348 343 346 355 1 6 9 9 8 10 11 14 15 20 25 27 26 23 21 20 8 6 360 350 358 352 342 346 356 2 9 3 0
9 347 21 39 46 34 15 11 348 22 1 324 297 343 326 332 315 307 313 290 229 265 295 75 178 225 220 78 107 94 77 67 50 50 44 30 33 18 15 5 359 4 359 359 354 350 346 341 346 343 333 345 333 324 332 346 348 356 355 1 4 360 5 5 7 20 25 33 31 33 34 27 19 16 358 354 357 356 346 341 352 355 2 11 10 358
66 353 19 33 42 31 16 342 323 8 5 272 319 334 324 312 292 300 303 282 270 8 307 324 2 350 15 260 151 169 59 59 56 47 36 32 26 15 7 352 354 352 355 356 353 360 359 352 339 334 330 321 323 322 329 333 331 330 338 350 353 359 357 353 6 22 22 33 37 39 38 37 29 14 4 357 354 353 348 347 355 5 7 8 12 3
334 114 313 102 53 18 342 331 326 346 0 304 326 319 310 301 297 296 288 311 321 34 301 343 355 327 281 82 353 46 99 41 63 48 29 20 23 22 19 9 355 352 351 353 348 350 353 351 343 330 310 321 311 305 305 313 316 320 324 345 356 347 350 342 359 16 22 30 30 34 33 36 27 28 14 5 1 360 349 355 2 7 10 6 7 6
265 306 172 77 36 8 348 319 319 329 316 299 355 341 322 318 297 310 47 83 9 10 253 351 355 359 304 70 359 30 353 12 1 50 22 22 23 24 15 9 3 359 356 349 346 343 333 332 324 326 321 306 302 302 300 308 315 316 329 321 344 318 327 339 352 13 18 26 30 34 26 21 16 9 10 12 14 3 2 3 360 5 7 7 5 359
22 27 46 316 89 8 30 349 332 322 344 25 353 337 319 315 3 20 8 353 38 268 263 359 338 330 286 43 69 69 340 75 129 349 28 11 13 3 360 348 347 346 340 336 329 324 317 312 315 304 312 309 296 296 296 293 292 293 305 327 347 337 317 310 331 13 11 28 24 35 29 22 11 9 9 8 4 5 7 8 2 357 358 1 0 359
51 55 326 359 278 32 353 1 324 335 30 21 351 356 34 309 358 345 10 4 353 316 330 336 329 332 29 211 212 307 195 11 23 30 8 356 334 326 314 311 309 303 303 301 295 299 298 301 309 314 313 318 310 301 296 289 283 282 286 295 309 314 329 332 310 71 10 20 16 24 20 15 5 10 13 357 7 358 5 3 3 1 357 352 349 352
292 270 26 335 16 1 39 29 347 21 359 19 18 8 20 6 14 339 335 303 287 294 326 326 330 154 144 195 176 221 41 36 0 5 1 306 283 281 278 277 278 279 275 271 277 277 283 288 295 296 303 313 321 316 302 290 283 276 272 269 264 280 292 306 331 337 350 344 240 325 44 350 355 347 359 343 351 335 343 337 345 359 358 346 344 342
58 346 331 4 0 332 34 87 66 301 305 28 350 64 103 78 85 296 331 344 308 296 317 325 0 237 358 254 142 159 150 95 285 261 261 259 257 257 267 266 271 274 272 267 268 273 280 288 294 304 311 319 325 325 319 305 293 276 265 256 262 274 286 288 294 312 318 320 311 270 223 217 244 278 310 309 294 310 318 312 311 301 328 354 337 340
353 256 264 264 122 30 17 309 32 9 98 155 51 111 72 337 298 211 235 303 304 307 309 335 189 253 250 83 170 144 201 211 215 256 246 260 264 270 276 271 265 266 270 275 272 281 286 291 305 310 316 321 321 323 318 313 309 303 279 280 272 271 282 281 277 274 279 289 280 289 294 278 227 229 238 270 280 287 273 286 291 292 310 316 320 329
10 307 313 343 8 54 7 41 30 22 47 331 39 8 291 271 162 21 312 236 285 303 279 158 307 197 340 216 220 217 214 233 234 261 264 276 283 286 288 286 280 271 276 280 282 287 296 310 318 317 318 322 322 320 319 319 318 311 293 299 315 314 308 293 278 268 269 267 272 274 269 274 285 254 237 231 235 258 274 282 274 263 281 291 300 313
119 277 314 109 355 12 115 115 87 44 102 27 35 313 296 117 113 115 293 321 235 275 282 307 304 308 4 311 75 218 231 254 256 271 264 275 283 287 284 287 287 286 290 298 303 306 309 313 326 327 322 321 320 318 321 324 323 324 306 324 320 304 296 289 287 277 264 258 253 254 260 263 256 263 260 243 241 236 243 269 273 270 284 273 289 301
106 357 294 244 6 333 20 67 69 72 37 74 175 256 66 339 352 328 98 331 333 308 300 290 268 267 242 267 92 223 216 255 257 260 272 287 294 287 287 290 294 305 312 311 315 319 320 326 328 323 322 321 320 323 318 319 330 331 321 307 291 284 281 279 282 277 275 261 256 253 248 245 254 255 253 255 247 245 244 254 254 253 264 277 281 285
50 146 299 271 27 317 12 45 357 333 179 139 169 26 323 111 199 360 214 225 179 274 327 294 321 283 218 218 208 251 244 263 292 297 285 285 282 279 283 291 301 307 308 314 320 324 324 322 323 320 325 323 321 325 318 315 319 322 312 307 302 301 298 298 292 282 276 270 270 268 263 262 254 251 253 255 255 262 263 264 257 251 255 259 258 279
314 110 254 290 3 32 11 34 79 18 4 349 15 13 12 94 218 206 154 131 192 229 250 296 306 266 256 199 185 240 250 251 264 282 285 297 295 288 284 290 293 298 310 312 317 319 321 321 318 315 318 315 310 312 315 314 316 319 322 324 325 325 323 320 307 302 293 296 292 286 281 270 265 260 256 257 251 250 258 272 272 261 250 244 250 259
46 8 232 304 349 15 226 153 165 93 54 33 22 321 315 357 352 10 316 69 64 22 294 310 286 284 251 150 197 221 244 251 265 268 289 292 295 288 280 278 286 298 300 304 308 311 310 309 300 303 309 310 314 312 310 308 317 326 331 326 330 333 332 331 328 322 312 308 303 301 296 297 301 295 286 268 263 254 256 256 260 267 262 245 256 235
148 170 90 302 262 274 275 269 161 138 107 139 137 286 95 119 103 63 295 301 347 247 241 248 276 277 189 171 203 219 237 251 254 276 283 291 298 289 275 274 287 291 301 311 313 313 311 297 289 290 292 299 301 297 295 302 312 309 309 317 321 326 322 327 324 324 322 319 316 314 314 312 306 297 290 283 272 264 260 260 261 253 247 252 260 257
84 68 349 271 253 273 279 278 153 161 76 45 16 104 74 307 232 206 203 245 278 300 331 310 269 270 265 213 220 219 248 260 266 260 280 302 309 303 298 299 308 312 312 308 309 310 307 291 294 300 314 318 319 317 292 283 289 290 290 301 309 314 312 315 318 317 319 320 318 318 316 312 308 304 299 291 277 268 268 272 269 262 250 248 256 272
63 290 110 318 339 329 193 342 196 136 110 154 212 231 148 97 199 227 194 45 263 209 204 162 279 290 241 233 227 222 240 264 295 297 279 304 308 306 308 312 311 309 309 310 311 309 302 294 313 316 316 321 321 318 282 283 277 292 299 311 316 313 312 315 316 318 318 319 317 314 311 308 305 300 295 294 299 306 307 305 297 284 267 270 270 258
101 203 93 69 33 346 325 326 321 318 320 317 179 150 187 195 228 6 298 335 298 268 141 174 263 277 284 232 280 294 307 304 300 285 284 296 306 311 312 308 308 309 308 311 309 311 299 303 308 318 321 319 320 317 298 285 290 301 304 308 311 312 314 317 319 321 323 321 318 316 313 311 310 318 332 336 328 318 315 312 305 287 270 269 275 279
145 61 116 151 153 204 230 247 266 285 313 296 283 288 275 231 154 119 119 121 219 260 256 239 243 278 288 294 306 307 311 309 311 311 310 313 309 306 301 302 304 307 312 311 310 298 307 321 321 316 318 320 320 321 305 290 305 309 311 311 312 308 309 314 317 318 319 316 313 313 312 319 324 317 313 313 309 305 303 301 298 297 293 284 275 274
68 87 239 164 198 219 239 253 261 257 260 268 279 283 269 258 181 175 192 247 192 357 279 254 210 250 277 292 302 306 307 305 304 307 312 311 309 303 302 300 305 308 308 307 301 312 318 316 317 319 320 321 322 323 308 290 311 317 317 316 315 310 308 309 309 309 307 306 304 302 304 306 307 309 307 305 303 301 298 294 293 291 289 290 289 284
141 172 261 124 238 236 255 257 261 262 249 256 261 268 282 269 198 198 227 234 150 212 252 279 290 280 281 289 295 293 293 293 303 310 310 305 303 305 304 304 307 308 309 308 301 311 315 315 317 319 321 323 325 318 313 319 321 318 311 311 310 307 307 310 309 306 302 297 297 301 308 313 312 309 306 304 304 306 306 305 302 298 293 289 286 282
88 247 216 195 274 244 246 248 253 254 256 258 263 269 267 254 239 226 240 229 201 233 253 277 288 278 271 283 285 279 277 291 299 303 303 305 306 304 303 303 305 306 307 301 305 309 309 313 316 318 322 326 328 332 328 318 315 313 311 309 309 310 310 314 309 307 306 307 311 312 310 306 303 301 300 304 306 305 303 300 297 295 295 294 290 284
100 271 98 14 328 285 258 257 268 259 262 277 273 269 265 248 242 238 241 255 239 260 258 270 283 284 281 259 269 288 287 287 294 301 303 302 305 305 302 302 304 306 302 298 302 307 308 309 314 320 323 324 329 324 318 315 313 311 309 310 313 314 314 316 313 314 312 307 304 301 299 298 297 300 305 304 298 296 294 292 291 294 296 300 302 298
66 261 44 77 357 299 214 198 252 263 265 259 274 278 269 244 253 239 224 213 195 244 259 276 274 271 288 309 304 284 287 291 294 299 302 305 304 303 303 305 306 308 300 304 307 307 311 317 320 320 319 324 324 322 320 315 313 314 315 320 319 317 320 316 311 306 303 300 300 299 298 298 302 303 299 296 293 291 289 292 294 293 294 294 295 287
155 123 24 46 340 256 187 31 307 300 308 332 280 228 220 221 221 242 235 229 232 233 268 263 263 268 287 297 299 298 300 297 299 301 305 307 308 305 304 302 302 309 312 311 313 318 320 318 316 317 326 329 324 318 312 314 318 320 321 322 319 317 313 309 304 301 299 299 299 299 303 307 302 298 294 290 293 303 304 297 293 291 290 289 291 291
89 107 223 166 222 269 314 328 319 11 3 275 225 173 163 240 228 243 245 220 233 195 237 243 266 286 293 299 294 293 294 295 299 302 304 303 305 303 299 306 305 304 310 315 318 317 315 313 316 325 326 320 315 310 310 318 313 313 319 317 315 312 308 306 303 299 299 302 305 307 305 301 295 290 294 306 308 302 297 294 290 291 293 296 294 288
136 108 199 143 170 281 329 349 345 349 247 231 240 205 186 208 211 228 245 248 249 241 252 262 269 274 278 281 271 272 279 289 295 293 296 294 290 287 295 306 307 317 317 318 315 314 311 314 322 322 320 318 314 310 312 310 314 316 314 314 310 308 305 302 301 305 310 309 305 301 297 292 291 300 305 303 299 298 297 298 300 298 294 290 286 284
151 135 173 227 183 331 27 50 17 248 247 291 256 216 202 168 222 324 289 237 223 237 238 254 262 267 269 270 280 287 294 294 291 279 280 282 273 276 312 307 311 313 313 313 313 312 314 320 316 316 315 314 310 308 312 315 321 318 312 312 306 303 299 301 311 311 307 303 300 295 294 294 298 301 305 307 306 304 301 298 295 295 295 292 289 283
144 100 112 274 127 204 218 169 234 311 317 332 36 198 177 202 197 159 263 293 234 233 239 260 270 264 265 276 288 296 298 297 287 284 252 251 268 277 284 296 304 307 307 308 308 306 310 307 312 313 313 312 307 308 316 319 318 314 312 309 303 299 306 314 309 307 304 299 296 294 293 302 315 315 308 305 305 304 303 302 301 298 297 291 286 282
151 141 223 106 276 135 262 315 335 350 321 275 229 254 247 149 144 159 133 282 293 257 223 217 230 257 287 295 300 305 311 307 297 296 235 228 263 285 291 293 296 295 301 305 306 301 296 300 305 310 313 310 308 313 316 318 314 313 309 302 300 314 315 312 308 304 300 296 294 294 314 322 311 304 302 302 301 301 301 298 294 288 288 289 294 293
29 75 157 157 238 41 56 203 224 207 252 203 222 210 186 153 120 113 27 281 279 194 174 183 250 285 291 297 299 317 319 302 294 297 311 296 298 301 300 297 292 294 301 305 303 295 296 301 305 309 312 309 308 314 317 315 316 312 304 299 311 315 312 310 304 301 298 297 296 310 313 304 300 298 298 297 296 298 299 297 295 293 294 289 286 284
286 329 58 295 208 201 151 186 253 211 251 261 220 208 181 121 90 67 335 273 252 187 190 187 260 283 289 288 291 286 267 283 290 298 314 310 308 299 296 300 304 307 307 306 299 276 283 299 312 314 313 307 302 312 314 315 313 308 300 308 315 313 310 305 299 295 295 293 299 306 301 299 300 299 297 295 296 297 295 293 292 291 289 286 284 284
218 259 160 228 200 214 187 263 317 284 263 228 202 206 143 123 86 127 244 274 194 191 213 231 265 270 275 283 288 286 266 255 278 295 305 305 306 302 296 289 291 300 304 304 299 293 301 306 306 306 306 303 306 311 311 310 310 304 299 307 313 309 304 300 297 296 294 292 302 303 299 299 300 299 295 292 293 296 295 293 292 292 290 289 288 285
326 112 294 79 187 217 207 202 240 259 243 190 260 140 153 106 258 246 238 176 171 255 255 230 266 275 280 279 275 266 279 281 284 293 300 302 297 297 300 300 299 298 296 294 283 297 308 311 309 306 300 294 305 309 308 308 306 301 297 304 304 303 300 297 297 297 292 300 303 301 302 303 303 299 296 296 297 299 294 290 287 286 288 291 291 288
195 147 219 189 214 91 92 252 327 305 283 146 129 64 145 159 232 212 265 240 183 257 270 268 250 277 282 288 278 277 284 291 294 295 295 297 301 303 306 307 306 306 308 308 302 304 309 307 307 306 302 303 307 309 308 309 305 299 293 295 298 300 298 297 297 295 295 305 303 304 305 307 308 308 304 299 298 295 292 290 290 295 300 296 292 288
190 164 247 258 172 180 174 184 212 211 189 181 150 199 201 212 244 266 271 290 254 207 258 274 274 270 274 273 286 289 288 291 295 298 300 302 303 301 300 302 302 304 305 301 297 304 307 303 301 300 303 306 309 309 305 305 303 298 294 294 297 297 297 296 296 298 308 305 303 305 308 311 312 308 302 298 297 294 291 295 301 301 296 295 295 298
192 188 183 202 215 158 212 219 237 180 161 197 203 230 236 234 248 261 258 257 269 272 239 268 280 277 257 275 282 284 292 292 295 301 304 305 308 309 310 309 310 309 312 313 311 310 309 306 304 302 302 306 310 311 305 301 301 298 293 292 300 299 296 294 298 311 308 307 306 307 309 309 308 304 301 296 295 298 302 301 302 299 298 296 297 296
258 191 155 71 247 278 277 251 268 275 253 236 218 232 253 263 251 227 229 247 244 247 243 254 275 276 279 264 280 288 285 297 303 309 311 311 310 310 311 310 308 310 311 312 312 312 307 306 303 302 302 307 311 310 304 302 302 296 291 295 300 299 292 290 309 310 306 306 309 310 310 308 307 304 300 300 300 299 296 295 299 301 301 301 297 298
235 149 143 215 260 61 273 242 206 239 251 255 256 251 251 252 255 227 228 235 251 241 242 238 255 271 270 263 259 280 293 302 305 309 313 312 312 310 310 306 309 319 319 316 312 313 314 313 307 304 306 309 315 312 306 305 300 289 288 303 302 297 290 297 306 304 304 308 310 309 308 308 307 311 310 304 303 297 296 297 299 301 300 297 295 295
311 167 174 231 196 186 248 262 263 247 241 256 255 265 261 248 239 233 232 235 234 235 225 241 253 266 253 269 274 283 289 298 306 310 313 311 308 308 307 309 315 315 314 311 311 312 311 310 305 304 308 311 314 311 305 304 300 292 300 305 302 296 299 308 301 303 303 306 308 308 309 306 311 312 305 306 306 308 306 301 296 295 293 292 295 296
168 122 233 170 199 252 282 279 266 278 277 261 258 253 245 251 249 237 228 234 232 241 247 243 213 237 251 267 281 283 289 290 291 299 301 302 304 306 307 307 309 309 312 318 316 313 310 309 306 303 308 311 311 306 304 301 297 297 310 307 304 319 313 299 302 304 304 307 311 310 311 306 301 302 308 309 308 301 296 293 296 298 295 287 272 278
104 229 184 66 278 266 246 256 237 304 294 288 228 230 247 243 231 239 230 234 235 245 243 243 235 222 236 251 257 255 265 282 284 286 289 290 295 305 305 303 304 309 313 313 309 308 309 306 301 304 309 309 308 302 301 299 298 301 303 301 317 322 304 297 302 305 309 312 312 309 308 308 307 313 311 308 306 304 304 310 315 311 306 303 305 306
194 219 149 207 193 249 250 249 218 228 256 264 273 264 220 224 219 232 241 244 245 235 230 236 260 261 241 239 230 237 260 268 278 285 285 291 300 297 289 298 306 310 312 313 313 312 309 305 301 302 307 307 305 301 299 300 302 303 303 314 313 308 294 294 306 305 307 314 313 309 310 313 315 314 307 302 304 315 318 314 309 309 309 308 309 311